SVA798 OEMA-VGHS

Flight info

Callsign SVA798
Flight time 5h 44m
Altitude 37000
Route MEDRO M872 GOKSA Y214 RAPMA DCT DEGNO DCT MIDGU M440 TULBU N881 RASKI/N0480F390 L639 BPL A791 CEA A462 IKOGU IKOGU1B
Aircraft B772/H-SDE2E3FGHIJ4J5M1P2RWXY/LB1D1G1

Departure

Time 2026-04-29 10:54
Airport Prince Mohammad Bin Abdulaziz Airport (OEMA)

Arrival

Time 2026-04-29 16:38
Airport Hazrat Shahjalal International Airport (VGHS)
Time Latitude Longitude Altitude Speed Heading
2026-04-29 10:23 24.55801 39.71220 2074 ft 0 kts 77°
2026-04-29 10:42 24.55798 39.71207 2072 ft 4 kts 75°
2026-04-29 10:43 24.55787 39.71169 2074 ft 4 kts 63°
2026-04-29 10:43 24.55773 39.71145 2074 ft 4 kts 47°
2026-04-29 10:43 24.55755 39.71129 2074 ft 4 kts 16°
2026-04-29 10:43 24.55740 39.71126 2074 ft 1 kts 349°
2026-04-29 10:47 24.55743 39.71126 2074 ft 3 kts 349°
2026-04-29 10:47 24.55793 39.71115 2072 ft 11 kts 349°
2026-04-29 10:47 24.55888 39.71095 2071 ft 15 kts 349°
2026-04-29 10:47 24.55977 39.71076 2072 ft 10 kts 349°
2026-04-29 10:48 24.56016 39.71033 2070 ft 8 kts 274°
2026-04-29 10:48 24.56003 39.70967 2074 ft 10 kts 258°
2026-04-29 10:48 24.55996 39.70896 2074 ft 9 kts 283°
2026-04-29 10:48 24.56038 39.70867 2072 ft 7 kts 349°
2026-04-29 10:49 24.56089 39.70856 2072 ft 7 kts 349°
2026-04-29 10:49 24.56140 39.70845 2071 ft 7 kts 348°
2026-04-29 10:49 24.56191 39.70834 2072 ft 7 kts 349°
2026-04-29 10:49 24.56241 39.70823 2074 ft 7 kts 349°
2026-04-29 10:50 24.56292 39.70812 2071 ft 7 kts 349°
2026-04-29 10:50 24.56343 39.70801 2072 ft 7 kts 348°
2026-04-29 10:50 24.56394 39.70790 2073 ft 7 kts 349°
2026-04-29 10:50 24.56445 39.70779 2071 ft 7 kts 349°
2026-04-29 10:51 24.56497 39.70768 2072 ft 9 kts 349°
2026-04-29 10:51 24.56588 39.70749 2073 ft 17 kts 349°
2026-04-29 10:51 24.56725 39.70720 2072 ft 23 kts 349°
2026-04-29 10:51 24.56880 39.70687 2071 ft 22 kts 349°
2026-04-29 10:52 24.57027 39.70656 2070 ft 20 kts 349°
2026-04-29 10:52 24.57160 39.70627 2073 ft 19 kts 349°
2026-04-29 10:52 24.57291 39.70600 2073 ft 19 kts 349°
2026-04-29 10:52 24.57421 39.70572 2071 ft 19 kts 349°
2026-04-29 10:53 24.57550 39.70544 2073 ft 19 kts 349°
2026-04-29 10:53 24.57642 39.70498 2069 ft 14 kts 295°
2026-04-29 10:53 24.57636 39.70391 2074 ft 14 kts 256°
2026-04-29 10:53 24.57549 39.70355 2070 ft 20 kts 173°
2026-04-29 10:54 24.57294 39.70408 2074 ft 64 kts 169°
2026-04-29 10:54 24.56616 39.70553 2073 ft 133 kts 168°
2026-04-29 10:54 24.55513 39.70772 2167 ft 179 kts 169°
2026-04-29 10:54 24.54286 39.70970 2966 ft 178 kts 173°
2026-04-29 10:55 24.53039 39.71156 3665 ft 186 kts 172°
2026-04-29 10:55 24.51696 39.71466 3943 ft 209 kts 171°
2026-04-29 10:55 24.50731 39.71697 4075 ft 221 kts 170°
2026-04-29 10:55 24.48584 39.72196 4288 ft 250 kts 170°
2026-04-29 10:56 24.47430 39.72454 4448 ft 261 kts 172°
2026-04-29 10:56 24.44983 39.72988 5165 ft 269 kts 171°
2026-04-29 10:56 24.43130 39.73378 5810 ft 272 kts 172°
2026-04-29 10:56 24.41261 39.73768 6404 ft 275 kts 172°
2026-04-29 10:57 24.39368 39.74162 6990 ft 277 kts 171°
2026-04-29 10:57 24.37559 39.74936 7451 ft 288 kts 148°
2026-04-29 10:57 24.36095 39.76463 8012 ft 296 kts 129°
2026-04-29 10:57 24.34992 39.78362 8640 ft 295 kts 123°
2026-04-29 10:58 24.34245 39.80468 9113 ft 305 kts 98°
2026-04-29 10:58 24.34407 39.82807 9614 ft 313 kts 80°
2026-04-29 10:58 24.34909 39.85154 10075 ft 319 kts 78°
2026-04-29 10:58 24.35431 39.87567 10337 ft 334 kts 79°
2026-04-29 10:59 24.35898 39.90131 10494 ft 354 kts 81°
2026-04-29 10:59 24.36320 39.92871 10651 ft 375 kts 83°
2026-04-29 10:59 24.36729 39.95748 11024 ft 388 kts 83°
2026-04-29 10:59 24.37137 39.98668 11549 ft 397 kts 83°
2026-04-29 11:00 24.37559 40.01682 12214 ft 402 kts 83°
2026-04-29 11:00 24.37987 40.04727 12924 ft 407 kts 83°
2026-04-29 11:00 24.38420 40.07815 13610 ft 412 kts 83°
2026-04-29 11:00 24.38710 40.09885 13999 ft 417 kts 83°
2026-04-29 11:01 24.39153 40.13047 14658 ft 421 kts 83°
2026-04-29 11:01 24.39750 40.17310 15675 ft 424 kts 82°
2026-04-29 11:01 24.40199 40.20527 16389 ft 428 kts 82°
2026-04-29 11:01 24.40652 40.23776 17080 ft 433 kts 82°
2026-04-29 11:02 24.41109 40.27060 17759 ft 438 kts 81°
2026-04-29 11:02 24.41569 40.30380 18444 ft 442 kts 81°
2026-04-29 11:02 24.42031 40.33729 19061 ft 446 kts 82°
2026-04-29 11:02 24.42493 40.37107 19654 ft 451 kts 82°
2026-04-29 11:03 24.42962 40.40537 20254 ft 456 kts 82°
2026-04-29 11:03 24.43274 40.42825 20664 ft 459 kts 82°
2026-04-29 11:03 24.43906 40.47460 21459 ft 466 kts 82°
2026-04-29 11:03 24.44386 40.50986 22045 ft 471 kts 82°
2026-04-29 11:04 24.44873 40.54562 22615 ft 475 kts 83°
2026-04-29 11:04 24.45363 40.58173 23210 ft 480 kts 83°
2026-04-29 11:04 24.45799 40.61823 23694 ft 484 kts 88°
2026-04-29 11:04 24.45703 40.65517 24036 ft 487 kts 98°
2026-04-29 11:05 24.45282 40.69234 24379 ft 492 kts 101°
2026-04-29 11:05 24.44795 40.72968 24750 ft 498 kts 101°
2026-04-29 11:05 24.44315 40.76763 25129 ft 503 kts 100°
2026-04-29 11:05 24.43871 40.80588 25498 ft 509 kts 99°
2026-04-29 11:06 24.43457 40.84466 25845 ft 514 kts 99°
2026-04-29 11:06 24.43059 40.88392 26178 ft 519 kts 99°
2026-04-29 11:06 24.42665 40.92356 26508 ft 524 kts 99°
2026-04-29 11:06 24.42271 40.96298 26817 ft 529 kts 99°
2026-04-29 11:07 24.41863 41.00334 27148 ft 533 kts 99°
2026-04-29 11:07 24.41448 41.04392 27457 ft 538 kts 99°
2026-04-29 11:07 24.41025 41.08490 27753 ft 542 kts 99°
2026-04-29 11:07 24.40593 41.12613 28054 ft 546 kts 99°
2026-04-29 11:08 24.40303 41.15363 28236 ft 549 kts 99°
2026-04-29 11:08 24.39862 41.19529 28518 ft 552 kts 99°
2026-04-29 11:08 24.39416 41.23729 28779 ft 556 kts 99°
2026-04-29 11:08 24.38966 41.27966 29038 ft 560 kts 99°
2026-04-29 11:09 24.38514 41.32219 29290 ft 563 kts 99°
2026-04-29 11:09 24.38059 41.36499 29540 ft 566 kts 99°
2026-04-29 11:09 24.37600 41.40805 29747 ft 570 kts 99°
2026-04-29 11:09 24.37138 41.45128 29972 ft 572 kts 99°
2026-04-29 11:10 24.36672 41.49476 30154 ft 575 kts 99°
2026-04-29 11:10 24.36204 41.53826 30362 ft 576 kts 99°
2026-04-29 11:10 24.35733 41.58195 30569 ft 577 kts 99°
2026-04-29 11:10 24.35108 41.63983 30814 ft 578 kts 99°
2026-04-29 11:11 24.34785 41.66956 30925 ft 579 kts 99°
2026-04-29 11:11 24.34308 41.71340 31085 ft 580 kts 100°
2026-04-29 11:11 24.33829 41.75734 31236 ft 581 kts 99°
2026-04-29 11:11 24.33340 41.80080 31387 ft 581 kts 101°
2026-04-29 11:12 24.32638 41.84443 31542 ft 579 kts 107°
2026-04-29 11:12 24.31601 41.88697 31736 ft 576 kts 110°
2026-04-29 11:12 24.30466 41.92901 31953 ft 574 kts 111°
2026-04-29 11:12 24.29312 41.97088 32189 ft 573 kts 111°
2026-04-29 11:13 24.28167 42.01262 32388 ft 573 kts 111°
2026-04-29 11:13 24.27032 42.05450 32586 ft 572 kts 111°
2026-04-29 11:13 24.25914 42.09636 32747 ft 573 kts 110°
2026-04-29 11:14 24.23693 42.18036 32840 ft 568 kts 110°
2026-04-29 11:14 24.22612 42.22152 32833 ft 557 kts 110°
2026-04-29 11:14 24.21541 42.26212 32842 ft 553 kts 110°
2026-04-29 11:15 24.19392 42.34300 32847 ft 552 kts 111°
2026-04-29 11:15 24.17234 42.42381 32853 ft 553 kts 111°
2026-04-29 11:16 24.15075 42.50460 32851 ft 553 kts 111°
2026-04-29 11:16 24.12916 42.58531 32850 ft 553 kts 111°
2026-04-29 11:17 24.10761 42.66565 32850 ft 552 kts 111°
2026-04-29 11:17 24.08594 42.74626 32854 ft 552 kts 111°
2026-04-29 11:18 24.06425 42.82679 32856 ft 551 kts 111°
2026-04-29 11:18 24.04255 42.90716 32858 ft 550 kts 111°
2026-04-29 11:19 24.02086 42.98736 32856 ft 550 kts 111°
2026-04-29 11:19 23.99919 43.06749 32857 ft 546 kts 112°
2026-04-29 11:20 23.97778 43.14647 32854 ft 543 kts 112°
2026-04-29 11:20 23.95628 43.22552 32858 ft 541 kts 112°
2026-04-29 11:21 23.93478 43.30435 32861 ft 540 kts 112°
2026-04-29 11:21 23.91331 43.38293 32854 ft 540 kts 112°
2026-04-29 11:22 23.89191 43.46110 32852 ft 540 kts 112°
2026-04-29 11:22 23.87034 43.53975 32858 ft 540 kts 112°
2026-04-29 11:23 23.84875 43.61830 32846 ft 540 kts 112°
2026-04-29 11:23 23.82711 43.69686 32852 ft 540 kts 112°
2026-04-29 11:24 23.80547 43.77528 32849 ft 539 kts 112°
2026-04-29 11:24 23.78385 43.85371 32843 ft 540 kts 110°
2026-04-29 11:25 23.76926 43.93461 32843 ft 547 kts 99°
2026-04-29 11:25 23.76356 44.01754 32835 ft 548 kts 97°
2026-04-29 11:26 23.75521 44.14197 32838 ft 546 kts 98°
2026-04-29 11:26 23.74907 44.22394 32844 ft 546 kts 98°
2026-04-29 11:27 23.74274 44.30640 32843 ft 545 kts 98°
2026-04-29 11:27 23.73640 44.38876 32843 ft 545 kts 98°
2026-04-29 11:28 23.73005 44.47118 32842 ft 544 kts 98°
2026-04-29 11:28 23.72369 44.55331 32844 ft 543 kts 98°
2026-04-29 11:29 23.71727 44.63549 32847 ft 543 kts 98°
2026-04-29 11:29 23.71083 44.71743 32841 ft 542 kts 98°
2026-04-29 11:30 23.70433 44.79948 32846 ft 542 kts 98°
2026-04-29 11:30 23.69785 44.88095 32845 ft 542 kts 98°
2026-04-29 11:31 23.69115 44.96389 32975 ft 549 kts 98°
2026-04-29 11:31 23.69015 44.97622 33030 ft 549 kts 98°
2026-04-29 11:33 23.68785 45.00456 33168 ft 550 kts 98°
2026-04-29 11:33 23.68448 45.04604 33435 ft 549 kts 98°
2026-04-29 11:33 23.68112 45.08751 33741 ft 547 kts 98°
2026-04-29 11:33 23.67775 45.12881 34012 ft 546 kts 98°
2026-04-29 11:34 23.67437 45.17006 34256 ft 545 kts 98°
2026-04-29 11:34 23.67104 45.21063 34492 ft 544 kts 98°
2026-04-29 11:34 23.66765 45.25166 34721 ft 543 kts 98°
2026-04-29 11:34 23.66427 45.29265 34962 ft 542 kts 98°
2026-04-29 11:35 23.66090 45.33354 35210 ft 541 kts 98°
2026-04-29 11:35 23.65752 45.37434 35470 ft 540 kts 98°
2026-04-29 11:35 23.65414 45.41502 35732 ft 538 kts 98°
2026-04-29 11:35 23.65074 45.45578 35982 ft 537 kts 98°
2026-04-29 11:36 23.64734 45.49638 36245 ft 536 kts 98°
2026-04-29 11:36 23.64394 45.53681 36492 ft 535 kts 98°
2026-04-29 11:36 23.64055 45.57717 36733 ft 533 kts 98°
2026-04-29 11:36 23.63714 45.61751 36787 ft 535 kts 98°
2026-04-29 11:37 23.63029 45.69832 36837 ft 535 kts 98°
2026-04-29 11:37 23.62344 45.77883 36838 ft 531 kts 99°
2026-04-29 11:38 23.61657 45.85902 36849 ft 530 kts 99°
2026-04-29 11:38 23.60968 45.93897 36855 ft 530 kts 99°
2026-04-29 11:39 23.60276 46.01863 36859 ft 531 kts 99°
2026-04-29 11:39 23.59576 46.09884 36866 ft 531 kts 99°
2026-04-29 11:40 23.58873 46.17904 36878 ft 532 kts 99°
2026-04-29 11:40 23.58165 46.25932 36874 ft 532 kts 99°
2026-04-29 11:41 23.57454 46.33956 36881 ft 530 kts 99°
2026-04-29 11:41 23.56739 46.41948 36883 ft 529 kts 99°
2026-04-29 11:42 23.56024 46.49924 36881 ft 528 kts 99°
2026-04-29 11:42 23.55304 46.57838 36885 ft 528 kts 99°
2026-04-29 11:43 23.54569 46.65805 36878 ft 528 kts 99°
2026-04-29 11:43 23.53830 46.73775 36876 ft 528 kts 99°
2026-04-29 11:44 23.53088 46.81736 36862 ft 528 kts 99°
2026-04-29 11:44 23.52343 46.89701 36864 ft 527 kts 99°
2026-04-29 11:45 23.51595 46.97644 36855 ft 526 kts 99°
2026-04-29 11:45 23.50850 47.05527 36845 ft 526 kts 99°
2026-04-29 11:46 23.50096 47.13450 36846 ft 525 kts 99°
2026-04-29 11:46 23.49338 47.21369 36832 ft 525 kts 99°
2026-04-29 11:47 23.48579 47.29264 36834 ft 524 kts 99°
2026-04-29 11:47 23.47816 47.37155 36833 ft 524 kts 99°
2026-04-29 11:48 23.47050 47.45045 36831 ft 524 kts 99°
2026-04-29 11:48 23.46279 47.52936 36826 ft 524 kts 99°
2026-04-29 11:49 23.45514 47.60780 36821 ft 523 kts 99°
2026-04-29 11:49 23.44745 47.68666 36812 ft 523 kts 99°
2026-04-29 11:50 23.43971 47.76556 36817 ft 523 kts 99°
2026-04-29 11:50 23.43193 47.84439 36796 ft 523 kts 99°
2026-04-29 11:51 23.42412 47.92314 36798 ft 523 kts 99°
2026-04-29 11:51 23.41627 48.00188 36795 ft 523 kts 99°
2026-04-29 11:52 23.40838 48.08058 36799 ft 522 kts 99°
2026-04-29 11:52 23.40046 48.15924 36791 ft 522 kts 99°
2026-04-29 11:53 23.39256 48.23731 36781 ft 522 kts 99°
2026-04-29 11:53 23.38149 48.31527 36760 ft 516 kts 110°
2026-04-29 11:54 23.35553 48.38730 36767 ft 508 kts 123°
2026-04-29 11:54 23.31841 48.45199 36775 ft 504 kts 128°
2026-04-29 11:55 23.28020 48.51548 36771 ft 504 kts 128°
2026-04-29 11:55 23.24215 48.57969 36762 ft 505 kts 127°
2026-04-29 11:56 23.20437 48.64409 36755 ft 505 kts 127°
2026-04-29 11:56 23.16661 48.70850 36755 ft 505 kts 127°
2026-04-29 11:57 23.12882 48.77278 36747 ft 504 kts 127°
2026-04-29 11:57 23.09101 48.83698 36749 ft 504 kts 127°
2026-04-29 11:58 23.05958 48.89031 36743 ft 504 kts 127°
2026-04-29 11:58 23.02205 48.95452 36739 ft 505 kts 123°
2026-04-29 11:59 22.99626 49.02598 36746 ft 514 kts 107°
2026-04-29 11:59 22.98716 49.10335 36743 ft 519 kts 97°
2026-04-29 12:00 22.98293 49.18168 36743 ft 520 kts 96°
2026-04-29 12:00 22.97854 49.25990 36735 ft 520 kts 96°
2026-04-29 12:01 22.97353 49.33822 36741 ft 520 kts 97°
2026-04-29 12:01 22.96822 49.41646 36732 ft 520 kts 97°
2026-04-29 12:02 22.96284 49.49461 36732 ft 519 kts 97°
2026-04-29 12:02 22.95750 49.57230 36728 ft 519 kts 97°
2026-04-29 12:03 22.95212 49.65026 36729 ft 518 kts 97°
2026-04-29 12:03 22.94670 49.72826 36724 ft 518 kts 97°
2026-04-29 12:04 22.94125 49.80614 36737 ft 518 kts 97°
2026-04-29 12:04 22.93576 49.88410 36724 ft 518 kts 97°
2026-04-29 12:05 22.93024 49.96195 36734 ft 517 kts 97°
2026-04-29 12:05 22.92467 50.03986 36729 ft 517 kts 97°
2026-04-29 12:06 22.91906 50.11769 36737 ft 519 kts 97°
2026-04-29 12:06 22.91339 50.19582 36736 ft 525 kts 97°
2026-04-29 12:07 22.90760 50.27506 36735 ft 529 kts 97°
2026-04-29 12:07 22.90173 50.35503 36733 ft 533 kts 97°
2026-04-29 12:08 22.89579 50.43546 36730 ft 536 kts 97°
2026-04-29 12:08 22.88979 50.51610 36726 ft 537 kts 97°
2026-04-29 12:09 22.88372 50.59705 36725 ft 538 kts 97°
2026-04-29 12:09 22.87763 50.67774 36722 ft 537 kts 97°
2026-04-29 12:10 22.87150 50.75841 36722 ft 536 kts 97°
2026-04-29 12:10 22.86535 50.83886 36719 ft 534 kts 97°
2026-04-29 12:11 22.85918 50.91898 36717 ft 533 kts 97°
2026-04-29 12:11 22.85301 50.99860 36719 ft 532 kts 97°
2026-04-29 12:12 22.84678 51.07838 36722 ft 531 kts 97°
2026-04-29 12:12 22.84052 51.15802 36724 ft 530 kts 97°
2026-04-29 12:13 22.83423 51.23769 36720 ft 530 kts 97°
2026-04-29 12:13 22.82790 51.31721 36720 ft 529 kts 97°
2026-04-29 12:14 22.82154 51.39669 36722 ft 529 kts 97°
2026-04-29 12:14 22.81513 51.47623 36721 ft 529 kts 97°
2026-04-29 12:15 22.80868 51.55575 36723 ft 529 kts 97°
2026-04-29 12:15 22.80224 51.63472 36726 ft 530 kts 97°
2026-04-29 12:16 22.79571 51.71429 36723 ft 530 kts 97°
2026-04-29 12:16 22.78915 51.79381 36722 ft 530 kts 97°
2026-04-29 12:17 22.78254 51.87334 36719 ft 530 kts 97°
2026-04-29 12:17 22.77588 51.95303 36721 ft 530 kts 97°
2026-04-29 12:18 22.76919 52.03260 36722 ft 530 kts 97°
2026-04-29 12:18 22.76245 52.11226 36727 ft 530 kts 97°
2026-04-29 12:19 22.75568 52.19187 36728 ft 530 kts 97°
2026-04-29 12:19 22.74887 52.27145 36728 ft 530 kts 97°
2026-04-29 12:20 22.74206 52.35057 36727 ft 530 kts 97°
2026-04-29 12:20 22.73517 52.43009 36727 ft 530 kts 97°
2026-04-29 12:21 22.72824 52.50968 36728 ft 530 kts 97°
2026-04-29 12:21 22.72128 52.58915 36730 ft 530 kts 97°
2026-04-29 12:22 22.71428 52.66858 36727 ft 530 kts 97°
2026-04-29 12:22 22.70723 52.74807 36726 ft 530 kts 97°
2026-04-29 12:23 22.70232 52.82756 36728 ft 531 kts 90°
2026-04-29 12:23 22.70594 52.90746 36736 ft 531 kts 88°
2026-04-29 12:24 22.71035 52.98733 36730 ft 531 kts 88°
2026-04-29 12:24 22.71432 53.06725 36732 ft 531 kts 88°
2026-04-29 12:25 22.71788 53.14656 36729 ft 531 kts 88°
2026-04-29 12:26 22.72305 53.26646 36729 ft 531 kts 88°
2026-04-29 12:26 22.72648 53.34644 36732 ft 531 kts 88°
2026-04-29 12:27 22.72989 53.42638 36734 ft 531 kts 88°
2026-04-29 12:27 22.73326 53.50625 36729 ft 531 kts 88°
2026-04-29 12:28 22.73659 53.58619 36728 ft 531 kts 88°
2026-04-29 12:28 22.73986 53.66559 36728 ft 531 kts 88°
2026-04-29 12:29 22.74311 53.74556 36736 ft 531 kts 88°
2026-04-29 12:29 22.74633 53.82559 36733 ft 531 kts 88°
2026-04-29 12:30 22.74896 53.89206 36733 ft 531 kts 88°
2026-04-29 12:30 22.75261 53.98537 36736 ft 531 kts 89°
2026-04-29 12:31 22.75570 54.06531 36731 ft 531 kts 89°
2026-04-29 12:31 22.75875 54.14519 36729 ft 531 kts 89°
2026-04-29 12:32 22.76177 54.22515 36732 ft 531 kts 89°
2026-04-29 12:32 22.76474 54.30508 36737 ft 531 kts 89°
2026-04-29 12:33 22.76764 54.38438 36730 ft 531 kts 89°
2026-04-29 12:33 22.77053 54.46429 36731 ft 531 kts 89°
2026-04-29 12:34 22.77338 54.54426 36734 ft 531 kts 89°
2026-04-29 12:34 22.77620 54.62415 36731 ft 531 kts 89°
2026-04-29 12:35 22.77896 54.70408 36737 ft 531 kts 89°
2026-04-29 12:35 22.78169 54.78407 36735 ft 531 kts 89°
2026-04-29 12:36 22.78438 54.86397 36736 ft 530 kts 89°
2026-04-29 12:36 22.78703 54.94388 36743 ft 530 kts 89°
2026-04-29 12:37 22.78963 55.02325 36742 ft 530 kts 89°
2026-04-29 12:37 22.79220 55.10318 36747 ft 530 kts 89°
2026-04-29 12:38 22.79473 55.18307 36752 ft 530 kts 89°
2026-04-29 12:38 22.79721 55.26290 36751 ft 530 kts 89°
2026-04-29 12:39 22.79966 55.34267 36757 ft 530 kts 89°
2026-04-29 12:39 22.80207 55.42255 36766 ft 530 kts 89°
2026-04-29 12:40 22.80444 55.50236 36766 ft 530 kts 89°
2026-04-29 12:40 22.80677 55.58219 36772 ft 529 kts 89°
2026-04-29 12:41 22.80905 55.66192 36771 ft 529 kts 89°
2026-04-29 12:41 22.81130 55.74160 36773 ft 529 kts 89°
2026-04-29 12:42 22.81349 55.82086 36778 ft 529 kts 89°
2026-04-29 12:42 22.81566 55.90060 36780 ft 529 kts 89°
2026-04-29 12:43 22.81779 55.98033 36786 ft 529 kts 89°
2026-04-29 12:43 22.81988 56.06017 36786 ft 529 kts 89°
2026-04-29 12:44 22.82193 56.13995 36787 ft 529 kts 89°
2026-04-29 12:44 22.82393 56.21963 36790 ft 529 kts 89°
2026-04-29 12:45 22.82558 56.28585 36792 ft 529 kts 89°
2026-04-29 12:45 22.82655 56.32562 38519 ft 525 kts 89°
2026-04-29 12:45 22.82761 56.36460 38634 ft 512 kts 87°
2026-04-29 12:45 22.83075 56.40277 38326 ft 503 kts 82°
2026-04-29 12:46 22.83714 56.43981 38092 ft 498 kts 78°
2026-04-29 12:46 22.84437 56.47653 37844 ft 498 kts 78°
2026-04-29 12:46 22.85169 56.51322 37588 ft 498 kts 78°
2026-04-29 12:46 22.85896 56.54998 37370 ft 498 kts 78°
2026-04-29 12:47 22.86609 56.58665 37195 ft 496 kts 78°
2026-04-29 12:47 22.87998 56.65950 37065 ft 493 kts 78°
2026-04-29 12:48 22.89378 56.73282 37013 ft 498 kts 78°
2026-04-29 12:48 22.90758 56.80630 37008 ft 502 kts 78°
2026-04-29 12:49 22.92154 56.88069 37007 ft 504 kts 78°
2026-04-29 12:49 22.93551 56.95532 37003 ft 505 kts 78°
2026-04-29 12:50 22.94945 57.03000 37001 ft 505 kts 78°
2026-04-29 12:50 22.96336 57.10470 37000 ft 504 kts 79°
2026-04-29 12:51 22.97719 57.17924 37001 ft 503 kts 79°
2026-04-29 12:51 22.99096 57.25358 37001 ft 501 kts 79°
2026-04-29 12:52 23.00233 57.32754 36999 ft 500 kts 86°
2026-04-29 12:52 23.00493 57.40285 37005 ft 499 kts 89°
2026-04-29 12:53 23.00667 57.47813 37001 ft 499 kts 89°
2026-04-29 12:53 23.00882 57.55347 37003 ft 498 kts 88°
2026-04-29 12:54 23.01119 57.62865 37003 ft 499 kts 88°
2026-04-29 12:54 23.01353 57.70390 37003 ft 499 kts 88°
2026-04-29 12:55 23.01579 57.77872 37001 ft 499 kts 88°
2026-04-29 12:55 23.01803 57.85403 37002 ft 499 kts 89°
2026-04-29 12:56 23.01873 57.92943 37001 ft 499 kts 90°
2026-04-29 12:56 23.01837 58.00481 37001 ft 499 kts 90°
2026-04-29 12:57 23.01818 58.08018 37002 ft 500 kts 90°
2026-04-29 12:57 23.01817 58.15566 37001 ft 500 kts 90°
2026-04-29 12:58 23.01817 58.23114 37002 ft 500 kts 90°
2026-04-29 12:58 23.01810 58.30657 37001 ft 500 kts 90°
2026-04-29 12:59 23.01800 58.38199 37002 ft 500 kts 90°
2026-04-29 12:59 23.01992 58.45744 37000 ft 500 kts 88°
2026-04-29 13:00 23.02305 58.53280 37001 ft 500 kts 88°
2026-04-29 13:00 23.02586 58.60775 37000 ft 500 kts 88°
2026-04-29 13:01 23.02836 58.68276 36987 ft 489 kts 88°
2026-04-29 13:01 23.03069 58.75587 36999 ft 483 kts 88°
2026-04-29 13:02 23.03300 58.82879 37004 ft 484 kts 88°
2026-04-29 13:02 23.03530 58.90191 37001 ft 485 kts 88°
2026-04-29 13:02 23.03645 58.93868 35341 ft 487 kts 88°
2026-04-29 13:03 23.03758 58.97537 35600 ft 487 kts 88°
2026-04-29 13:03 23.03871 59.01215 35836 ft 488 kts 88°
2026-04-29 13:03 23.03980 59.04898 36065 ft 488 kts 88°
2026-04-29 13:03 23.04087 59.08586 36302 ft 488 kts 88°
2026-04-29 13:04 23.04194 59.12270 36510 ft 489 kts 88°
2026-04-29 13:04 23.04300 59.15972 36622 ft 492 kts 88°
2026-04-29 13:04 23.04407 59.19697 36694 ft 496 kts 88°
2026-04-29 13:05 23.04620 59.27208 36749 ft 505 kts 88°
2026-04-29 13:05 23.04834 59.34889 36750 ft 513 kts 88°
2026-04-29 13:06 23.05016 59.42673 36735 ft 518 kts 89°
2026-04-29 13:06 23.05130 59.50503 36733 ft 520 kts 89°
2026-04-29 13:07 23.05240 59.58349 36736 ft 519 kts 89°
2026-04-29 13:07 23.05357 59.66179 36731 ft 517 kts 89°
2026-04-29 13:08 23.05473 59.73967 36734 ft 514 kts 89°
2026-04-29 13:08 23.05584 59.81716 36739 ft 512 kts 89°
2026-04-29 13:09 23.05692 59.89447 36743 ft 511 kts 89°
2026-04-29 13:09 23.05786 59.97165 36744 ft 511 kts 89°
2026-04-29 13:10 23.05870 60.04893 36749 ft 512 kts 89°
2026-04-29 13:10 23.05950 60.12575 36381 ft 507 kts 89°
2026-04-29 13:10 23.05989 60.16363 35926 ft 510 kts 89°
2026-04-29 13:11 23.06028 60.20223 35454 ft 513 kts 88°
2026-04-29 13:11 23.06067 60.24109 35041 ft 515 kts 88°
2026-04-29 13:11 23.06105 60.28005 34771 ft 516 kts 88°
2026-04-29 13:12 23.06177 60.35811 34743 ft 516 kts 88°
2026-04-29 13:12 23.06245 60.43602 34739 ft 515 kts 88°
2026-04-29 13:13 23.06310 60.51384 34743 ft 516 kts 88°
2026-04-29 13:13 23.06371 60.59176 34741 ft 516 kts 88°
2026-04-29 13:14 23.06430 60.66976 34747 ft 516 kts 88°
2026-04-29 13:14 23.06493 60.74777 34741 ft 516 kts 88°
2026-04-29 13:15 23.06553 60.82522 34748 ft 516 kts 88°
2026-04-29 13:15 23.06609 60.90321 34744 ft 516 kts 88°
2026-04-29 13:16 23.06660 60.98111 34741 ft 516 kts 88°
2026-04-29 13:16 23.06707 61.05897 34741 ft 516 kts 88°
2026-04-29 13:17 23.06751 61.13687 34745 ft 516 kts 88°
2026-04-29 13:17 23.06791 61.21478 34743 ft 516 kts 88°
2026-04-29 13:18 23.06827 61.29278 34743 ft 516 kts 88°
2026-04-29 13:18 23.06860 61.37078 34740 ft 516 kts 88°
2026-04-29 13:19 23.06889 61.44881 34741 ft 517 kts 88°
2026-04-29 13:19 23.06917 61.52685 34737 ft 517 kts 88°
2026-04-29 13:20 23.06951 61.60461 34742 ft 517 kts 88°
2026-04-29 13:20 23.06982 61.68272 34743 ft 517 kts 88°
2026-04-29 13:21 23.07007 61.76091 34743 ft 517 kts 88°
2026-04-29 13:21 23.07012 61.83902 34742 ft 517 kts 88°
2026-04-29 13:22 23.07010 61.91716 34743 ft 517 kts 88°
2026-04-29 13:22 23.07005 61.99471 34742 ft 518 kts 88°
2026-04-29 13:23 23.07000 62.07359 34747 ft 526 kts 88°
2026-04-29 13:23 23.06991 62.15368 34750 ft 533 kts 88°
2026-04-29 13:24 23.06976 62.23448 34743 ft 537 kts 88°
2026-04-29 13:24 23.06956 62.31578 34741 ft 538 kts 88°
2026-04-29 13:25 23.06933 62.39707 34739 ft 538 kts 88°
2026-04-29 13:25 23.06890 62.51870 34739 ft 535 kts 88°
2026-04-29 13:26 23.06857 62.59925 34738 ft 533 kts 88°
2026-04-29 13:26 23.06820 62.67965 34747 ft 532 kts 88°
2026-04-29 13:27 23.06779 62.75939 34742 ft 531 kts 88°
2026-04-29 13:27 23.06734 62.83970 34744 ft 532 kts 88°
2026-04-29 13:28 23.06685 62.91999 34746 ft 532 kts 88°
2026-04-29 13:28 23.06632 63.00037 34742 ft 532 kts 88°
2026-04-29 13:29 23.06575 63.08084 34743 ft 533 kts 88°
2026-04-29 13:29 23.06524 63.14769 34744 ft 533 kts 88°
2026-04-29 13:30 23.06447 63.24195 34749 ft 533 kts 88°
2026-04-29 13:30 23.06390 63.30889 34747 ft 534 kts 88°
2026-04-29 13:31 23.06316 63.38943 34746 ft 533 kts 88°
2026-04-29 13:31 23.06226 63.48316 34740 ft 533 kts 88°
2026-04-29 13:32 23.06158 63.55010 34744 ft 532 kts 88°
2026-04-29 13:32 23.06073 63.62994 34734 ft 526 kts 88°
2026-04-29 13:33 23.05986 63.70951 34752 ft 527 kts 88°
2026-04-29 13:33 23.05894 63.78921 34745 ft 528 kts 88°
2026-04-29 13:34 23.05798 63.86901 34751 ft 529 kts 88°
2026-04-29 13:34 23.05642 63.94895 34746 ft 529 kts 89°
2026-04-29 13:35 23.05439 64.02888 34742 ft 529 kts 89°
2026-04-29 13:35 23.05236 64.10869 34748 ft 529 kts 89°
2026-04-29 13:36 23.05038 64.18864 34747 ft 529 kts 89°
2026-04-29 13:36 23.04843 64.26795 34745 ft 529 kts 89°
2026-04-29 13:37 23.04641 64.34781 34742 ft 529 kts 89°
2026-04-29 13:37 23.04435 64.42772 34741 ft 529 kts 89°
2026-04-29 13:38 23.04225 64.50755 34741 ft 529 kts 89°
2026-04-29 13:38 23.04011 64.58736 34746 ft 529 kts 89°
2026-04-29 13:39 23.03792 64.66720 34742 ft 529 kts 89°
2026-04-29 13:39 23.03570 64.74702 34744 ft 529 kts 89°
2026-04-29 13:40 23.03344 64.82675 34743 ft 529 kts 89°
2026-04-29 13:40 23.03114 64.90658 34741 ft 529 kts 89°
2026-04-29 13:41 23.02880 64.98634 34749 ft 528 kts 89°
2026-04-29 13:41 23.02641 65.06617 34745 ft 528 kts 89°
2026-04-29 13:42 23.02400 65.14586 34745 ft 528 kts 89°
2026-04-29 13:42 23.02155 65.22515 34747 ft 528 kts 89°
2026-04-29 13:43 23.01905 65.30490 34745 ft 529 kts 89°
2026-04-29 13:43 23.01651 65.38464 34747 ft 529 kts 89°
2026-04-29 13:44 23.01393 65.46440 34746 ft 528 kts 89°
2026-04-29 13:44 23.01131 65.54409 34741 ft 528 kts 89°
2026-04-29 13:45 23.00865 65.62384 34745 ft 528 kts 89°
2026-04-29 13:45 23.00595 65.70353 34741 ft 528 kts 89°
2026-04-29 13:46 23.00321 65.78322 34743 ft 528 kts 89°
2026-04-29 13:46 23.00043 65.86293 34744 ft 528 kts 89°
2026-04-29 13:47 22.99761 65.94254 34741 ft 528 kts 89°
2026-04-29 13:47 22.99476 66.02207 34748 ft 528 kts 89°
2026-04-29 13:48 22.99186 66.10174 34746 ft 528 kts 89°
2026-04-29 13:48 22.98895 66.18083 34744 ft 528 kts 89°
2026-04-29 13:49 22.98597 66.26043 34749 ft 528 kts 89°
2026-04-29 13:49 22.98296 66.34012 34742 ft 528 kts 89°
2026-04-29 13:50 22.97990 66.41972 34744 ft 528 kts 89°
2026-04-29 13:50 22.97681 66.49936 34748 ft 528 kts 89°
2026-04-29 13:51 22.97367 66.57907 34746 ft 529 kts 89°
2026-04-29 13:51 22.97051 66.65840 34745 ft 529 kts 89°
2026-04-29 13:52 22.96728 66.73834 34747 ft 530 kts 89°
2026-04-29 13:52 22.96401 66.81824 34749 ft 530 kts 89°
2026-04-29 13:53 22.96071 66.89818 34754 ft 531 kts 89°
2026-04-29 13:53 22.95904 66.93828 34865 ft 532 kts 89°
2026-04-29 13:53 22.95743 66.97835 35132 ft 530 kts 88°
2026-04-29 13:54 22.95681 67.01770 35385 ft 527 kts 86°
2026-04-29 13:54 22.95699 67.05743 35588 ft 526 kts 85°
2026-04-29 13:54 22.95749 67.09710 35759 ft 526 kts 85°
2026-04-29 13:54 22.95799 67.13678 35946 ft 526 kts 86°
2026-04-29 13:55 22.95835 67.17654 36169 ft 526 kts 86°
2026-04-29 13:55 22.95856 67.21619 36396 ft 525 kts 86°
2026-04-29 13:55 22.95865 67.25576 36606 ft 524 kts 86°
2026-04-29 13:55 22.95868 67.29539 36689 ft 526 kts 86°
2026-04-29 13:56 22.95866 67.37445 36741 ft 526 kts 86°
2026-04-29 13:56 22.95863 67.45362 36741 ft 523 kts 86°
2026-04-29 13:57 22.95859 67.53254 36748 ft 522 kts 86°
2026-04-29 13:57 22.95852 67.61134 36745 ft 522 kts 86°
2026-04-29 13:58 22.95841 67.69021 36745 ft 523 kts 86°
2026-04-29 13:58 22.95826 67.76916 36752 ft 523 kts 86°
2026-04-29 13:59 22.95807 67.84823 36747 ft 524 kts 86°
2026-04-29 13:59 22.95797 67.92686 36746 ft 524 kts 86°
2026-04-29 14:00 22.95810 68.00594 36748 ft 524 kts 86°
2026-04-29 14:00 22.95819 68.08506 36745 ft 524 kts 86°
2026-04-29 14:01 22.95820 68.16426 36741 ft 524 kts 86°
2026-04-29 14:01 22.95815 68.24341 36746 ft 524 kts 86°
2026-04-29 14:02 22.95808 68.32263 36747 ft 524 kts 86°
2026-04-29 14:02 22.95718 68.40181 36748 ft 525 kts 89°
2026-04-29 14:03 22.95282 68.48065 36747 ft 526 kts 90°
2026-04-29 14:03 22.94774 68.55985 36746 ft 527 kts 90°
2026-04-29 14:04 22.94285 68.63913 36747 ft 527 kts 90°
2026-04-29 14:04 22.93815 68.71864 36753 ft 527 kts 90°
2026-04-29 14:05 22.93347 68.79801 36747 ft 527 kts 90°
2026-04-29 14:05 22.92874 68.87733 36747 ft 527 kts 90°
2026-04-29 14:06 22.92393 68.95687 36748 ft 527 kts 90°
2026-04-29 14:06 22.91910 69.03612 36747 ft 527 kts 90°
2026-04-29 14:07 22.91427 69.11483 36750 ft 527 kts 90°
2026-04-29 14:07 22.90936 69.19425 36748 ft 527 kts 90°
2026-04-29 14:08 22.90441 69.27345 36750 ft 527 kts 90°
2026-04-29 14:08 22.89943 69.35272 36748 ft 527 kts 90°
2026-04-29 14:09 22.89440 69.43205 36750 ft 527 kts 90°
2026-04-29 14:09 22.88933 69.51136 36749 ft 527 kts 90°
2026-04-29 14:10 22.88426 69.59014 36749 ft 527 kts 90°
2026-04-29 14:10 22.87912 69.66945 36746 ft 527 kts 90°
2026-04-29 14:11 22.87410 69.74881 36750 ft 527 kts 90°
2026-04-29 14:11 22.86953 69.82830 36744 ft 528 kts 90°
2026-04-29 14:12 22.86501 69.90773 36742 ft 528 kts 90°
2026-04-29 14:12 22.86036 69.98722 36740 ft 528 kts 90°
2026-04-29 14:13 22.85562 70.06671 36742 ft 528 kts 90°
2026-04-29 14:13 22.85088 70.14571 36744 ft 528 kts 90°
2026-04-29 14:14 22.84603 70.22576 36741 ft 528 kts 90°
2026-04-29 14:14 22.84121 70.30475 36742 ft 529 kts 90°
2026-04-29 14:15 22.83633 70.38422 36740 ft 529 kts 90°
2026-04-29 14:15 22.83139 70.46401 36750 ft 533 kts 90°
2026-04-29 14:16 22.82637 70.54453 36751 ft 537 kts 90°
2026-04-29 14:16 22.82126 70.62554 36746 ft 540 kts 90°
2026-04-29 14:17 22.81609 70.70694 36740 ft 541 kts 90°
2026-04-29 14:17 22.81092 70.78826 36739 ft 540 kts 89°
2026-04-29 14:18 22.81256 70.86907 36736 ft 532 kts 78°
2026-04-29 14:18 22.82429 70.94771 36732 ft 528 kts 75°
2026-04-29 14:19 22.83677 71.02600 36726 ft 527 kts 75°
2026-04-29 14:19 22.84883 71.10440 36725 ft 526 kts 76°
2026-04-29 14:20 22.86045 71.18216 36723 ft 526 kts 76°
2026-04-29 14:20 22.87204 71.26042 36719 ft 526 kts 76°
2026-04-29 14:21 22.88364 71.33883 36717 ft 526 kts 76°
2026-04-29 14:21 22.89520 71.41715 36713 ft 526 kts 76°
2026-04-29 14:22 22.90480 71.48234 36710 ft 527 kts 76°
2026-04-29 14:22 22.91631 71.56075 36713 ft 527 kts 76°
2026-04-29 14:23 22.92780 71.63938 36713 ft 528 kts 76°
2026-04-29 14:23 22.93925 71.71798 36704 ft 528 kts 76°
2026-04-29 14:24 22.95069 71.79680 36703 ft 528 kts 76°
2026-04-29 14:24 22.96209 71.87562 36696 ft 529 kts 76°
2026-04-29 14:25 22.97339 71.95398 36699 ft 529 kts 76°
2026-04-29 14:25 22.98471 72.03282 36696 ft 529 kts 76°
2026-04-29 14:26 22.99601 72.11178 36700 ft 529 kts 76°
2026-04-29 14:26 23.00727 72.19080 36697 ft 529 kts 76°
2026-04-29 14:27 23.01849 72.26978 36704 ft 529 kts 76°
2026-04-29 14:28 23.03526 72.38833 36692 ft 530 kts 76°
2026-04-29 14:28 23.04631 72.46688 36697 ft 530 kts 76°
2026-04-29 14:29 23.05741 72.54598 36697 ft 530 kts 76°
2026-04-29 14:29 23.06838 72.62533 36685 ft 531 kts 77°
2026-04-29 14:30 23.07435 72.70582 36706 ft 534 kts 82°
2026-04-29 14:30 23.07833 72.78654 36693 ft 535 kts 82°
2026-04-29 14:31 23.08235 72.86680 36707 ft 536 kts 82°
2026-04-29 14:31 23.08670 72.94767 36700 ft 536 kts 82°
2026-04-29 14:32 23.09115 73.02856 36698 ft 536 kts 82°
2026-04-29 14:32 23.09556 73.10939 36699 ft 537 kts 82°
2026-04-29 14:33 23.09991 73.19049 36698 ft 537 kts 82°
2026-04-29 14:33 23.10421 73.27153 36696 ft 537 kts 82°
2026-04-29 14:34 23.10845 73.35255 36692 ft 537 kts 82°
2026-04-29 14:34 23.11267 73.43361 36694 ft 537 kts 82°
2026-04-29 14:35 23.11681 73.51404 36700 ft 537 kts 82°
2026-04-29 14:35 23.12094 73.59508 36698 ft 537 kts 82°
2026-04-29 14:36 23.12502 73.67597 36709 ft 536 kts 82°
2026-04-29 14:36 23.12907 73.75700 36707 ft 536 kts 82°
2026-04-29 14:37 23.13306 73.83776 36718 ft 535 kts 82°
2026-04-29 14:37 23.13700 73.91853 36720 ft 535 kts 82°
2026-04-29 14:38 23.14092 73.99949 36722 ft 535 kts 82°
2026-04-29 14:38 23.14480 74.08023 36729 ft 535 kts 82°
2026-04-29 14:39 23.14862 74.16103 36734 ft 535 kts 82°
2026-04-29 14:39 23.15238 74.24133 36741 ft 535 kts 82°
2026-04-29 14:40 23.15613 74.32207 36745 ft 535 kts 82°
2026-04-29 14:40 23.15903 74.40298 36751 ft 536 kts 83°
2026-04-29 14:41 23.16042 74.48402 36756 ft 537 kts 84°
2026-04-29 14:41 23.16171 74.56507 36761 ft 537 kts 83°
2026-04-29 14:42 23.16321 74.64619 36765 ft 537 kts 83°
2026-04-29 14:42 23.16480 74.72727 36773 ft 537 kts 83°
2026-04-29 14:43 23.16636 74.80836 36773 ft 537 kts 83°
2026-04-29 14:43 23.16786 74.88962 36783 ft 537 kts 83°
2026-04-29 14:44 23.16929 74.97078 36787 ft 537 kts 83°
2026-04-29 14:44 23.17070 75.05207 36792 ft 537 kts 83°
2026-04-29 14:45 23.17205 75.13281 36790 ft 538 kts 83°
2026-04-29 14:45 23.17338 75.21415 36795 ft 538 kts 84°
2026-04-29 14:46 23.17466 75.29545 36795 ft 538 kts 84°
2026-04-29 14:46 23.17590 75.37685 36798 ft 538 kts 84°
2026-04-29 14:47 23.17710 75.45814 36800 ft 538 kts 84°
2026-04-29 14:47 23.17825 75.53950 36805 ft 538 kts 84°
2026-04-29 14:48 23.17937 75.62090 36795 ft 538 kts 84°
2026-04-29 14:48 23.18043 75.70163 36798 ft 538 kts 84°
2026-04-29 14:49 23.18146 75.78306 36793 ft 538 kts 84°
2026-04-29 14:49 23.18245 75.86452 36797 ft 538 kts 84°
2026-04-29 14:50 23.18341 75.94580 36790 ft 538 kts 84°
2026-04-29 14:50 23.18551 76.02695 36794 ft 535 kts 80°
2026-04-29 14:51 23.19168 76.10750 36791 ft 534 kts 79°
2026-04-29 14:51 23.19841 76.18733 36789 ft 534 kts 79°
2026-04-29 14:52 23.20486 76.26782 36786 ft 534 kts 79°
2026-04-29 14:52 23.21101 76.34831 36788 ft 534 kts 79°
2026-04-29 14:53 23.21706 76.42881 36792 ft 534 kts 79°
2026-04-29 14:53 23.22311 76.50939 36787 ft 534 kts 79°
2026-04-29 14:54 23.22913 76.58985 36780 ft 534 kts 79°
2026-04-29 14:54 23.23511 76.67045 36785 ft 534 kts 80°
2026-04-29 14:55 23.24105 76.75098 36782 ft 534 kts 80°
2026-04-29 14:55 23.24694 76.83143 36780 ft 533 kts 80°
2026-04-29 14:56 23.25275 76.91131 36775 ft 533 kts 80°
2026-04-29 14:56 23.25856 76.99184 36782 ft 533 kts 80°
2026-04-29 14:57 23.26432 77.07225 36778 ft 533 kts 80°
2026-04-29 14:57 23.27005 77.15276 36782 ft 533 kts 80°
2026-04-29 14:58 23.27574 77.23328 36779 ft 533 kts 80°
2026-04-29 14:58 23.28138 77.31370 36772 ft 533 kts 80°
2026-04-29 14:59 23.28193 77.39432 36771 ft 539 kts 87°
2026-04-29 14:59 23.27812 77.47577 36774 ft 539 kts 88°
2026-04-29 15:00 23.27416 77.55716 36772 ft 538 kts 88°
2026-04-29 15:00 23.27061 77.63842 36770 ft 538 kts 88°
2026-04-29 15:01 23.26724 77.71976 36758 ft 538 kts 87°
2026-04-29 15:01 23.26384 77.80110 36772 ft 538 kts 88°
2026-04-29 15:02 23.26038 77.88199 36768 ft 538 kts 88°
2026-04-29 15:02 23.25684 77.96332 36764 ft 538 kts 88°
2026-04-29 15:03 23.25326 78.04470 36764 ft 538 kts 88°
2026-04-29 15:03 23.24962 78.12618 36750 ft 538 kts 88°
2026-04-29 15:04 23.24598 78.20699 36761 ft 538 kts 88°
2026-04-29 15:04 23.24228 78.28837 36769 ft 538 kts 88°
2026-04-29 15:05 23.23855 78.36949 36764 ft 538 kts 88°
2026-04-29 15:05 23.23476 78.45081 36755 ft 537 kts 88°
2026-04-29 15:06 23.23093 78.53196 36756 ft 537 kts 88°
2026-04-29 15:06 23.22710 78.61249 36755 ft 536 kts 88°
2026-04-29 15:07 23.22321 78.69345 36754 ft 536 kts 88°
2026-04-29 15:07 23.21967 78.77424 36751 ft 534 kts 86°
2026-04-29 15:08 23.21854 78.85480 36756 ft 532 kts 85°
2026-04-29 15:08 23.21792 78.93538 36748 ft 532 kts 85°
2026-04-29 15:09 23.21709 79.00231 36749 ft 533 kts 86°
2026-04-29 15:09 23.21578 79.08285 36748 ft 533 kts 86°
2026-04-29 15:10 23.21438 79.16354 36746 ft 533 kts 86°
2026-04-29 15:10 23.21298 79.24414 36738 ft 533 kts 86°
2026-04-29 15:11 23.21155 79.32479 36740 ft 533 kts 86°
2026-04-29 15:11 23.21010 79.40494 36734 ft 533 kts 86°
2026-04-29 15:12 23.20858 79.48563 36738 ft 533 kts 86°
2026-04-29 15:12 23.20704 79.56614 36734 ft 533 kts 86°
2026-04-29 15:13 23.20431 79.64632 36733 ft 533 kts 88°
2026-04-29 15:13 23.20057 79.72688 36728 ft 532 kts 88°
2026-04-29 15:14 23.19699 79.80661 36726 ft 531 kts 88°
2026-04-29 15:14 23.19356 79.88681 36724 ft 530 kts 88°
2026-04-29 15:15 23.19013 79.96686 36728 ft 529 kts 88°
2026-04-29 15:15 23.18664 80.04674 36716 ft 529 kts 88°
2026-04-29 15:16 23.18284 80.12667 36724 ft 528 kts 89°
2026-04-29 15:16 23.17870 80.20589 36723 ft 528 kts 89°
2026-04-29 15:17 23.17450 80.28556 36725 ft 527 kts 89°
2026-04-29 15:17 23.17034 80.36510 36729 ft 527 kts 89°
2026-04-29 15:18 23.16616 80.44459 36730 ft 527 kts 89°
2026-04-29 15:18 23.16194 80.52411 36732 ft 527 kts 89°
2026-04-29 15:19 23.15767 80.60365 36733 ft 527 kts 89°
2026-04-29 15:19 23.15337 80.68306 36733 ft 526 kts 89°
2026-04-29 15:20 23.14903 80.76252 36732 ft 526 kts 89°
2026-04-29 15:20 23.14470 80.84182 36733 ft 525 kts 90°
2026-04-29 15:21 23.14036 80.92094 36728 ft 524 kts 90°
2026-04-29 15:21 23.13604 80.99944 36729 ft 523 kts 90°
2026-04-29 15:22 23.13164 81.07831 36728 ft 522 kts 90°
2026-04-29 15:22 23.12721 81.15696 36719 ft 520 kts 90°
2026-04-29 15:23 23.12276 81.23539 36723 ft 520 kts 90°
2026-04-29 15:23 23.11827 81.31370 36721 ft 519 kts 90°
2026-04-29 15:24 23.11374 81.39211 36715 ft 519 kts 90°
2026-04-29 15:24 23.10919 81.47036 36714 ft 519 kts 90°
2026-04-29 15:25 23.10459 81.54865 36708 ft 520 kts 90°
2026-04-29 15:25 23.09994 81.62709 36704 ft 520 kts 90°
2026-04-29 15:26 23.09526 81.70539 36704 ft 519 kts 91°
2026-04-29 15:26 23.09056 81.78322 36695 ft 519 kts 91°
2026-04-29 15:27 23.08581 81.86138 36693 ft 518 kts 91°
2026-04-29 15:27 23.08103 81.93941 36690 ft 517 kts 91°
2026-04-29 15:28 23.07624 82.01710 36688 ft 515 kts 91°
2026-04-29 15:28 23.07140 82.09472 36681 ft 514 kts 91°
2026-04-29 15:29 23.06658 82.17201 36687 ft 512 kts 91°
2026-04-29 15:30 23.05982 82.32585 36690 ft 507 kts 91°
2026-04-29 15:30 23.05667 82.40238 36691 ft 505 kts 91°
2026-04-29 15:31 23.05335 82.47797 36689 ft 504 kts 91°
2026-04-29 15:31 23.04993 82.55394 36695 ft 503 kts 91°
2026-04-29 15:32 23.04647 82.62974 36704 ft 503 kts 91°
2026-04-29 15:32 23.04299 82.70557 36708 ft 503 kts 91°
2026-04-29 15:33 23.03948 82.78143 36717 ft 503 kts 91°
2026-04-29 15:33 23.03592 82.85743 36722 ft 503 kts 91°
2026-04-29 15:34 23.03233 82.93330 36732 ft 503 kts 91°
2026-04-29 15:34 23.02872 83.00915 36737 ft 503 kts 91°
2026-04-29 15:35 23.02505 83.08510 36750 ft 503 kts 92°
2026-04-29 15:35 23.02135 83.16098 36762 ft 503 kts 92°
2026-04-29 15:36 23.01761 83.23687 36768 ft 503 kts 92°
2026-04-29 15:36 23.01384 83.31275 36776 ft 503 kts 92°
2026-04-29 15:37 23.01007 83.38804 36789 ft 503 kts 92°
2026-04-29 15:37 23.00624 83.46380 36798 ft 502 kts 92°
2026-04-29 15:38 23.00236 83.53956 36806 ft 502 kts 92°
2026-04-29 15:38 22.99845 83.61523 36814 ft 502 kts 92°
2026-04-29 15:39 22.99452 83.69078 36816 ft 501 kts 92°
2026-04-29 15:39 22.99055 83.76627 36825 ft 500 kts 92°
2026-04-29 15:40 22.98656 83.84146 36827 ft 498 kts 92°
2026-04-29 15:40 22.98256 83.91637 36834 ft 497 kts 92°
2026-04-29 15:41 22.97856 83.99059 36834 ft 495 kts 92°
2026-04-29 15:41 22.97450 84.06515 36834 ft 494 kts 92°
2026-04-29 15:42 22.97040 84.13935 36840 ft 492 kts 92°
2026-04-29 15:42 22.96533 84.21349 36841 ft 492 kts 93°
2026-04-29 15:43 22.95980 84.28753 36841 ft 492 kts 93°
2026-04-29 15:43 22.95432 84.36163 36841 ft 493 kts 93°
2026-04-29 15:44 22.94895 84.43533 36843 ft 493 kts 93°
2026-04-29 15:44 22.94354 84.50955 36843 ft 493 kts 93°
2026-04-29 15:45 22.93809 84.58377 36838 ft 493 kts 93°
2026-04-29 15:45 22.93260 84.65797 36839 ft 493 kts 93°
2026-04-29 15:46 22.92708 84.73204 36844 ft 493 kts 93°
2026-04-29 15:46 22.92152 84.80613 36838 ft 493 kts 93°
2026-04-29 15:47 22.91597 84.87979 36847 ft 493 kts 94°
2026-04-29 15:47 22.91035 84.95384 36849 ft 492 kts 94°
2026-04-29 15:48 22.90469 85.02794 36851 ft 493 kts 94°
2026-04-29 15:48 22.89901 85.10207 36847 ft 493 kts 94°
2026-04-29 15:49 22.89329 85.17606 36850 ft 493 kts 94°
2026-04-29 15:49 22.88753 85.25020 36850 ft 493 kts 94°
2026-04-29 15:50 22.88175 85.32436 36852 ft 493 kts 94°
2026-04-29 15:50 22.87600 85.39755 36840 ft 482 kts 95°
2026-04-29 15:51 22.87031 85.46974 36853 ft 480 kts 95°
2026-04-29 15:51 22.86458 85.54189 36855 ft 481 kts 95°
2026-04-29 15:52 22.85883 85.61389 36852 ft 482 kts 95°
2026-04-29 15:52 22.85301 85.68644 36851 ft 483 kts 95°
2026-04-29 15:53 22.84714 85.75908 36855 ft 483 kts 95°
2026-04-29 15:53 22.84224 85.81950 36846 ft 483 kts 95°
2026-04-29 15:54 22.83631 85.89209 36847 ft 483 kts 95°
2026-04-29 15:54 22.83036 85.96465 36844 ft 484 kts 95°
2026-04-29 15:55 22.82338 86.04915 36841 ft 484 kts 95°
2026-04-29 15:55 22.81734 86.12202 36838 ft 485 kts 95°
2026-04-29 15:56 22.81230 86.18271 36837 ft 486 kts 94°
2026-04-29 15:56 22.80791 86.25580 36833 ft 487 kts 92°
2026-04-29 15:57 22.80441 86.32933 36833 ft 489 kts 92°
2026-04-29 15:57 22.80073 86.40301 36833 ft 490 kts 93°
2026-04-29 15:58 22.79678 86.47693 36834 ft 492 kts 93°
2026-04-29 15:58 22.79271 86.55093 36831 ft 492 kts 93°
2026-04-29 15:59 22.78860 86.62502 36832 ft 493 kts 93°
2026-04-29 15:59 22.78446 86.69920 36835 ft 494 kts 93°
2026-04-29 16:00 22.78028 86.77352 36834 ft 494 kts 93°
2026-04-29 16:00 22.77607 86.84784 36834 ft 495 kts 93°
2026-04-29 16:01 22.77181 86.92235 36831 ft 495 kts 93°
2026-04-29 16:01 22.76751 86.99699 36834 ft 497 kts 93°
2026-04-29 16:02 22.76317 87.07183 36828 ft 498 kts 93°
2026-04-29 16:02 22.75881 87.14636 36830 ft 500 kts 94°
2026-04-29 16:03 22.75437 87.22161 36830 ft 501 kts 94°
2026-04-29 16:03 22.74989 87.29692 36819 ft 501 kts 94°
2026-04-29 16:04 22.74536 87.37235 36826 ft 501 kts 94°
2026-04-29 16:04 22.74081 87.44764 36837 ft 501 kts 95°
2026-04-29 16:05 22.73622 87.52315 36832 ft 502 kts 95°
2026-04-29 16:05 22.73158 87.59863 36836 ft 502 kts 95°
2026-04-29 16:06 22.72691 87.67419 36833 ft 502 kts 95°
2026-04-29 16:06 22.72221 87.74960 36834 ft 502 kts 95°
2026-04-29 16:07 22.71747 87.82508 36836 ft 502 kts 95°
2026-04-29 16:07 22.71272 87.90020 36841 ft 502 kts 95°
2026-04-29 16:08 22.70791 87.97569 36840 ft 503 kts 95°
2026-04-29 16:08 22.70305 88.05133 36843 ft 503 kts 95°
2026-04-29 16:09 22.69815 88.12707 36851 ft 504 kts 95°
2026-04-29 16:09 22.69321 88.20287 36863 ft 505 kts 95°
2026-04-29 16:10 22.68823 88.27882 36880 ft 506 kts 95°
2026-04-29 16:10 22.68321 88.35492 36943 ft 507 kts 95°
2026-04-29 16:11 22.68350 88.43123 36939 ft 509 kts 80°
2026-04-29 16:11 22.70575 88.50321 36941 ft 509 kts 60°
2026-04-29 16:12 22.73890 88.56211 36932 ft 510 kts 57°
2026-04-29 16:12 22.77350 88.62166 36898 ft 511 kts 57°
2026-04-29 16:13 22.81078 88.68761 36865 ft 513 kts 58°
2026-04-29 16:13 22.84764 88.75402 36828 ft 513 kts 58°
2026-04-29 16:14 22.88441 88.82037 36818 ft 513 kts 58°
2026-04-29 16:14 22.92123 88.88675 36813 ft 513 kts 58°
2026-04-29 16:15 22.95911 88.95237 36812 ft 513 kts 55°
2026-04-29 16:15 22.99871 89.01678 36815 ft 513 kts 55°
2026-04-29 16:16 23.03843 89.08150 36078 ft 522 kts 56°
2026-04-29 16:16 23.05817 89.11400 35341 ft 522 kts 56°
2026-04-29 16:16 23.07816 89.14709 34461 ft 526 kts 57°
2026-04-29 16:16 23.09823 89.18043 33511 ft 530 kts 57°
2026-04-29 16:17 23.11846 89.21409 32455 ft 533 kts 57°
2026-04-29 16:17 23.13880 89.24795 31426 ft 535 kts 57°
2026-04-29 16:17 23.15912 89.28177 30606 ft 533 kts 56°
2026-04-29 16:17 23.17936 89.31543 29925 ft 528 kts 56°
2026-04-29 16:18 23.19932 89.34863 29094 ft 522 kts 56°
2026-04-29 16:18 23.21904 89.38145 28342 ft 514 kts 56°
2026-04-29 16:18 23.23842 89.41376 27621 ft 508 kts 56°
2026-04-29 16:18 23.25760 89.44576 26931 ft 501 kts 56°
2026-04-29 16:19 23.27651 89.47731 26249 ft 495 kts 56°
2026-04-29 16:19 23.30916 89.53185 25065 ft 485 kts 56°
2026-04-29 16:19 23.33362 89.57272 24169 ft 478 kts 56°
2026-04-29 16:20 23.35165 89.60287 23504 ft 473 kts 56°
2026-04-29 16:20 23.36951 89.63271 22734 ft 468 kts 54°
2026-04-29 16:20 23.38941 89.66026 22021 ft 459 kts 42°
2026-04-29 16:20 23.41329 89.68208 21392 ft 449 kts 35°
2026-04-29 16:21 23.43827 89.70294 20753 ft 444 kts 35°
2026-04-29 16:21 23.50733 89.76432 18912 ft 431 kts 37°
2026-04-29 16:22 23.52781 89.78803 18269 ft 431 kts 53°
2026-04-29 16:22 23.54278 89.81602 17639 ft 425 kts 58°
2026-04-29 16:22 23.55707 89.84413 17014 ft 422 kts 57°
2026-04-29 16:22 23.57144 89.87185 16420 ft 419 kts 57°
2026-04-29 16:23 23.58595 89.89925 15829 ft 415 kts 57°
2026-04-29 16:23 23.60050 89.92636 15249 ft 413 kts 57°
2026-04-29 16:23 23.61499 89.95320 14698 ft 410 kts 57°
2026-04-29 16:23 23.62945 89.97997 14119 ft 409 kts 57°
2026-04-29 16:24 23.64392 90.00655 13534 ft 407 kts 56°
2026-04-29 16:24 23.65915 90.03238 12919 ft 404 kts 54°
2026-04-29 16:24 23.67463 90.05783 12359 ft 401 kts 54°
2026-04-29 16:24 23.68991 90.08321 11799 ft 398 kts 54°
2026-04-29 16:25 23.70484 90.10828 11539 ft 388 kts 54°
2026-04-29 16:25 23.71872 90.13160 11350 ft 352 kts 54°
2026-04-29 16:25 23.72743 90.14615 11229 ft 328 kts 54°
2026-04-29 16:25 23.74327 90.17254 11091 ft 305 kts 54°
2026-04-29 16:26 23.75486 90.19180 10992 ft 302 kts 54°
2026-04-29 16:26 23.76652 90.21120 10873 ft 311 kts 54°
2026-04-29 16:26 23.77900 90.23061 10673 ft 311 kts 43°
2026-04-29 16:26 23.79633 90.24374 10368 ft 299 kts 15°
2026-04-29 16:27 23.81588 90.24768 9885 ft 277 kts 352°
2026-04-29 16:27 23.83453 90.24406 8980 ft 271 kts 336°
2026-04-29 16:27 23.85090 90.23493 8488 ft 258 kts 321°
2026-04-29 16:27 23.86559 90.22330 8184 ft 265 kts 319°
2026-04-29 16:28 23.88059 90.21119 7850 ft 267 kts 323°
2026-04-29 16:28 23.89789 90.20379 7517 ft 265 kts 339°
2026-04-29 16:28 23.91383 90.19524 7249 ft 250 kts 318°
2026-04-29 16:28 23.92640 90.18255 7050 ft 248 kts 308°
2026-04-29 16:29 23.93860 90.16839 6757 ft 263 kts 312°
2026-04-29 16:29 23.95210 90.15534 6613 ft 258 kts 316°
2026-04-29 16:29 23.96560 90.14377 6457 ft 234 kts 317°
2026-04-29 16:29 23.97828 90.13337 6388 ft 227 kts 320°
2026-04-29 16:30 23.99303 90.12610 6302 ft 240 kts 340°
2026-04-29 16:30 24.00958 90.12198 6098 ft 250 kts 352°
2026-04-29 16:30 24.02678 90.12513 5806 ft 252 kts 24°
2026-04-29 16:30 24.04033 90.13669 5727 ft 249 kts 46°
2026-04-29 16:31 24.05228 90.15137 5436 ft 264 kts 49°
2026-04-29 16:31 24.06420 90.16658 5170 ft 258 kts 53°
2026-04-29 16:31 24.07158 90.18361 5028 ft 242 kts 85°
2026-04-29 16:31 24.07028 90.20090 4861 ft 213 kts 116°
2026-04-29 16:32 24.06481 90.21580 4785 ft 213 kts 119°
2026-04-29 16:32 24.06090 90.22560 4562 ft 209 kts 125°
2026-04-29 16:32 24.04742 90.23832 4268 ft 187 kts 159°
2026-04-29 16:32 24.03599 90.24524 4078 ft 188 kts 154°
2026-04-29 16:33 24.01470 90.26118 3654 ft 181 kts 151°
2026-04-29 16:33 24.00472 90.26909 3453 ft 176 kts 151°
2026-04-29 16:33 23.99461 90.27712 3276 ft 180 kts 151°
2026-04-29 16:34 23.98451 90.28517 3079 ft 183 kts 150°
2026-04-29 16:34 23.97428 90.29335 2833 ft 181 kts 150°
2026-04-29 16:34 23.96429 90.30135 2615 ft 173 kts 150°
2026-04-29 16:34 23.95512 90.30871 2420 ft 156 kts 150°
2026-04-29 16:35 23.94655 90.31554 2207 ft 150 kts 150°
2026-04-29 16:35 23.93848 90.32197 2035 ft 136 kts 148°
2026-04-29 16:35 23.93100 90.32793 1854 ft 134 kts 148°
2026-04-29 16:35 23.92340 90.33399 1697 ft 136 kts 147°
2026-04-29 16:36 23.91825 90.33810 1562 ft 134 kts 146°
2026-04-29 16:36 23.90824 90.34608 1324 ft 134 kts 147°
2026-04-29 16:36 23.90324 90.35009 1207 ft 130 kts 146°
2026-04-29 16:36 23.89595 90.35590 1046 ft 130 kts 146°
2026-04-29 16:37 23.88853 90.36181 882 ft 136 kts 143°
2026-04-29 16:37 23.88095 90.36789 683 ft 135 kts 143°
2026-04-29 16:37 23.87325 90.37400 527 ft 138 kts 142°
2026-04-29 16:37 23.86554 90.38014 329 ft 137 kts 142°
2026-04-29 16:38 23.85782 90.38621 151 ft 137 kts 143°
2026-04-29 16:38 23.85016 90.39239 43 ft 130 kts 144°
2026-04-29 16:38 23.84413 90.39719 42 ft 76 kts 143°
2026-04-29 16:38 23.84158 90.39925 42 ft 35 kts 137°
2026-04-29 16:39 23.84036 90.40123 42 ft 20 kts 115°
2026-04-29 16:39 23.84002 90.40228 41 ft 14 kts 103°
2026-04-29 16:39 23.84004 90.40361 41 ft 17 kts 82°
2026-04-29 16:39 23.84045 90.40454 41 ft 14 kts 54°
2026-04-29 16:40 23.84100 90.40539 40 ft 14 kts 53°
2026-04-29 16:40 23.84165 90.40577 40 ft 9 kts 344°
2026-04-29 16:40 23.84216 90.40541 40 ft 9 kts 324°
2026-04-29 16:40 23.84265 90.40503 40 ft 9 kts 324°
2026-04-29 16:41 23.84314 90.40463 40 ft 9 kts 324°
2026-04-29 16:41 23.84364 90.40424 40 ft 10 kts 324°
2026-04-29 16:41 23.84423 90.40377 40 ft 10 kts 324°
2026-04-29 16:41 23.84480 90.40332 40 ft 10 kts 324°
2026-04-29 16:42 23.84537 90.40286 40 ft 10 kts 324°
2026-04-29 16:42 23.84595 90.40241 40 ft 10 kts 326°
2026-04-29 16:42 23.84652 90.40258 40 ft 9 kts 48°
2026-04-29 16:42 23.84662 90.40271 40 ft 0 kts 51°
2026-04-29 16:43 23.84668 90.40280 39 ft 6 kts 52°
2026-04-29 16:43 23.84702 90.40317 40 ft 6 kts 21°
2026-04-29 16:43 23.84744 90.40331 40 ft 6 kts 31°
2026-04-29 16:43 23.84774 90.40367 39 ft 6 kts 53°
2026-04-29 16:44 23.84786 90.40385 40 ft 0 kts 53°